This demonstration page uses our WeatherBlox Daily Observations layout. Learn more.

39.29038, -76.61219

Hourly Observations for February 27, 2020

Temp ( °F °C ) Dew Point ( °F °C ) Humidity (%) Winds ( mph kmh ) Pressure ( in mb ) Visibility ( mi km ) Precip ( " mm )
12:54 am 00:54 undefined 45 7.2 39 3.9 80 80 undefined N/A 29.5 999 N/A 0.11 2.794
1:54 am 01:54 undefined 44 6.7 38 3.3 79 79 undefined N/A 29.55 1001 N/A 0 0
2:54 am 02:54 undefined 42 5.6 35 1.7 76 76 undefined N/A 29.54 1001 N/A 0.02 0.508
3:54 am 03:54 undefined 41 5 32 0 70 70 undefined N/A 29.54 1001 N/A 0 0
4:54 am 04:54 undefined 42 5.6 29 -1.7 60 60 undefined N/A 29.59 1002 N/A 0 0
5:54 am 05:54 undefined 40 4.4 25 -3.9 55 55 undefined N/A 29.59 1002 N/A 0 0
6:54 am 06:54 undefined 39 3.9 22 -5.6 50 50 undefined N/A 29.64 1004 N/A 0 0
7:54 am 07:54 undefined 38 3.3 19 -7.2 46 46 undefined N/A 29.69 1005 N/A 0 0
8:54 am 08:54 undefined 38 3.3 18 -7.8 44 44 undefined N/A 29.75 1007 N/A 0 0
9:54 am 09:54 undefined 40 4.4 18 -7.8 41 41 undefined N/A 29.77 1008 N/A 0 0
10:54 am 10:54 undefined 40 4.4 18 -7.8 41 41 undefined N/A 29.78 1008 N/A 0 0
11:54 am 11:54 undefined 42 5.6 17 -8.3 36 36 undefined N/A 29.8 1009 N/A 0 0
12:54 pm 12:54 undefined 43 6.1 16 -8.9 34 34 undefined N/A 29.78 1009 N/A 0 0
1:54 pm 13:54 undefined 44 6.7 17 -8.3 34 34 undefined N/A 29.79 1009 N/A 0 0
2:54 pm 14:54 undefined 41 5 14 -10 33 33 undefined N/A 29.8 1009 N/A 0 0
3:54 pm 15:54 undefined 40 4.4 13 -10.6 33 33 undefined N/A 29.8 1009 N/A 0 0
4:54 pm 16:54 undefined 38 3.3 13 -10.6 36 36 undefined N/A 29.85 1011 N/A 0 0
5:54 pm 17:54 undefined 36 2.2 14 -10 40 40 undefined N/A 29.88 1012 N/A 0 0
6:54 pm 18:54 undefined 36 2.2 13 -10.6 39 39 undefined N/A 29.91 1013 N/A 0 0
7:54 pm 19:54 undefined 34 1.1 12 -11.1 40 40 undefined N/A 29.95 1014 N/A 0 0
8:54 pm 20:54 undefined 34 1.1 12 -11.1 40 40 undefined N/A 29.97 1015 N/A 0 0
9:54 pm 21:54 undefined 33 0.6 11 -11.7 40 40 undefined N/A 29.96 1015 N/A 0 0
10:54 pm 22:54 undefined 33 0.6 12 -11.1 42 42 undefined N/A 29.96 1014 N/A 0 0
11:54 pm 23:54 undefined 32 0 13 -10.6 45 45 undefined N/A 29.96 1015 N/A 0 0

Powered by AerisWeather